Location: Luxembourg
(49.6117°N, 6.1300°E)
Time: 02:26:12
(UTC+01:00)

Vanguard 2 Rocket - Pass Details

Date: 16 January 2026
Orbit: 553 x 3286 km, 32.9° (Epoch: 10 February)

Event Time Altitude Azimuth Distance (km) Brightness Sun altitude
Exits shadow 03:28:20 19° 152° (SSE) 3,816 10.0 -46.9°
Drops below altitude 10° 03:33:07 10° 137° (SE) 4,987 10.7 -46.2°
Sets 03:38:50 0° 127° (SE) 6,458 11.5 -45.4°
